TimeCST,TemperatureF,Dew PointF,Humidity,Sea Level PressureIn,VisibilityMPH,Wind Direction,Wind SpeedMPH,Gust SpeedMPH,PrecipitationIn,Events,Conditions,WindDirDegrees,DateUTC
12:15 AM,-16.6,-22.0,76,30.39,10.0,NNW,8.1,-,N/A,,Clear,330,2013-12-23 06:15:00
12:35 AM,-16.6,-23.8,70,30.39,10.0,NNW,9.2,-,N/A,,Clear,330,2013-12-23 06:35:00
12:55 AM,-16.6,-23.8,70,30.40,10.0,NNW,10.4,-,N/A,,Clear,330,2013-12-23 06:55:00
1:15 AM,-16.6,-22.0,76,30.40,10.0,NNW,6.9,-,N/A,,Clear,330,2013-12-23 07:15:00
1:35 AM,-18.4,-23.8,76,30.41,10.0,NNW,6.9,-,N/A,,Clear,330,2013-12-23 07:35:00
1:55 AM,-18.4,-9999,N/A,30.41,10.0,NW,6.9,-,N/A,,Clear,320,2013-12-23 07:55:00
2:15 AM,-18.4,-9999,N/A,30.41,10.0,NNW,5.8,-,N/A,,Clear,330,2013-12-23 08:15:00
2:35 AM,-20.2,-9999,N/A,30.42,10.0,NW,8.1,-,N/A,,Clear,320,2013-12-23 08:35:00
2:55 AM,-20.2,-9999,N/A,30.43,10.0,NNW,9.2,-,N/A,,Clear,330,2013-12-23 08:55:00
3:15 AM,-20.2,-9999,N/A,30.43,10.0,NW,10.4,-,N/A,,Clear,320,2013-12-23 09:15:00
3:35 AM,-20.2,-9999,N/A,30.43,10.0,NW,9.2,-,N/A,,Clear,320,2013-12-23 09:35:00
3:55 AM,-22.0,-9999,N/A,30.43,10.0,NW,8.1,-,N/A,,Clear,320,2013-12-23 09:55:00
4:15 AM,-22.0,-9999,N/A,30.44,10.0,NNW,8.1,-,N/A,,Clear,330,2013-12-23 10:15:00
4:35 AM,-22.0,-9999,N/A,30.44,10.0,NW,8.1,-,N/A,,Clear,320,2013-12-23 10:35:00
4:55 AM,-22.0,-9999,N/A,30.44,10.0,NNW,5.8,-,N/A,,Clear,330,2013-12-23 10:55:00
5:15 AM,-22.0,-9999,N/A,30.45,10.0,NW,5.8,-,N/A,,Clear,320,2013-12-23 11:15:00
5:35 AM,-23.8,-9999,N/A,30.45,10.0,NW,6.9,-,N/A,,Clear,310,2013-12-23 11:35:00
5:55 AM,-23.8,-9999,N/A,30.45,10.0,NW,6.9,-,N/A,,Clear,320,2013-12-23 11:55:00
6:15 AM,-23.8,-9999,N/A,30.46,10.0,NNW,6.9,-,N/A,,Clear,330,2013-12-23 12:15:00
6:35 AM,-23.8,-9999,N/A,30.47,10.0,NW,6.9,-,N/A,,Clear,320,2013-12-23 12:35:00
6:55 AM,-23.8,-9999,N/A,30.47,10.0,NW,5.8,-,N/A,,Clear,320,2013-12-23 12:55:00
7:15 AM,-23.8,-9999,N/A,30.48,10.0,NNW,4.6,-,N/A,,Clear,330,2013-12-23 13:15:00
7:35 AM,-23.8,-9999,N/A,30.48,10.0,NW,4.6,-,N/A,,Clear,320,2013-12-23 13:35:00
7:55 AM,-23.8,-9999,N/A,30.48,10.0,NW,5.8,-,N/A,,Clear,320,2013-12-23 13:55:00
8:15 AM,-23.8,-9999,N/A,30.49,10.0,NW,4.6,-,N/A,,Clear,320,2013-12-23 14:15:00
8:35 AM,-23.8,-9999,N/A,30.49,10.0,NW,4.6,-,N/A,,Clear,320,2013-12-23 14:35:00
8:55 AM,-23.8,-9999,N/A,30.50,10.0,NW,3.5,-,N/A,,Clear,320,2013-12-23 14:55:00
9:15 AM,-23.8,-9999,N/A,30.51,10.0,NW,5.8,-,N/A,,Clear,310,2013-12-23 15:15:00
9:35 AM,-23.8,-9999,N/A,30.51,3.0,NW,4.6,-,N/A,,Clear,310,2013-12-23 15:35:00
9:55 AM,-23.8,-9999,N/A,30.51,10.0,NW,3.5,-,N/A,,Clear,310,2013-12-23 15:55:00
10:15 AM,-23.8,-9999,N/A,30.51,10.0,NW,3.5,-,N/A,,Clear,310,2013-12-23 16:15:00
10:35 AM,-20.2,-27.4,69,30.52,10.0,NW,5.8,-,N/A,,Clear,310,2013-12-23 16:35:00
10:55 AM,-20.2,-27.4,69,30.53,10.0,NW,6.9,-,N/A,,Clear,310,2013-12-23 16:55:00
11:15 AM,-18.4,-25.6,70,30.53,10.0,WNW,6.9,-,N/A,,Clear,290,2013-12-23 17:15:00
11:35 AM,-16.6,-25.6,64,30.52,10.0,WNW,4.6,-,N/A,,Clear,300,2013-12-23 17:35:00
11:55 AM,-14.8,-23.8,64,30.51,10.0,Calm,Calm,-,N/A,,Clear,0,2013-12-23 17:55:00
12:15 PM,-14.8,-20.2,77,30.50,10.0,WNW,4.6,-,N/A,,Clear,300,2013-12-23 18:15:00
12:35 PM,-13.0,-22.0,64,30.49,10.0,NW,5.8,-,N/A,,Clear,310,2013-12-23 18:35:00
12:55 PM,-11.2,-23.8,54,30.49,10.0,WNW,4.6,-,N/A,,Clear,300,2013-12-23 18:55:00
1:15 PM,-11.2,-20.2,64,30.49,10.0,West,3.5,-,N/A,,Clear,260,2013-12-23 19:15:00
1:35 PM,-11.2,-20.2,64,30.48,10.0,Calm,Calm,-,N/A,,Clear,0,2013-12-23 19:35:00
1:55 PM,-11.2,-20.2,64,30.48,10.0,SSW,3.5,-,N/A,,Clear,200,2013-12-23 19:55:00
2:15 PM,-11.2,-25.6,49,30.47,10.0,Calm,Calm,-,N/A,,Clear,0,2013-12-23 20:15:00
2:35 PM,-11.2,-23.8,54,30.47,10.0,Calm,Calm,-,N/A,,Clear,0,2013-12-23 20:35:00
2:55 PM,-14.8,-25.6,58,30.46,10.0,South,3.5,-,N/A,,Clear,180,2013-12-23 20:55:00
3:15 PM,-14.8,-27.4,53,30.47,10.0,SW,3.5,-,N/A,,Clear,220,2013-12-23 21:15:00
3:35 PM,-13.0,-25.6,53,30.47,10.0,SSW,5.8,-,N/A,,Clear,210,2013-12-23 21:35:00
3:55 PM,-14.8,-25.6,58,30.48,10.0,SSW,4.6,-,N/A,,Clear,200,2013-12-23 21:55:00
4:15 PM,-13.0,-29.2,44,30.48,10.0,WSW,4.6,-,N/A,,Clear,240,2013-12-23 22:15:00
4:35 PM,-14.8,-23.8,64,30.48,10.0,SW,5.8,-,N/A,,Clear,220,2013-12-23 22:35:00
4:55 PM,-14.8,-29.2,48,30.47,10.0,Calm,Calm,-,N/A,,Clear,0,2013-12-23 22:55:00
5:15 PM,-16.6,-25.6,64,30.47,10.0,SSW,4.6,-,N/A,,Clear,210,2013-12-23 23:15:00
5:35 PM,-16.6,-29.2,53,30.46,10.0,SSW,4.6,-,N/A,,Clear,210,2013-12-23 23:35:00
5:55 PM,-18.4,-9999,N/A,30.45,10.0,South,3.5,-,N/A,,Clear,190,2013-12-23 23:55:00
6:15 PM,-18.4,-27.4,63,30.46,10.0,SSW,4.6,-,N/A,,Clear,200,2013-12-24 00:15:00
6:35 PM,-18.4,-9999,N/A,30.45,10.0,South,5.8,-,N/A,,Clear,180,2013-12-24 00:35:00
6:55 PM,-20.2,-27.4,69,30.45,10.0,SSE,5.8,-,N/A,,Clear,160,2013-12-24 00:55:00
7:15 PM,-20.2,-9999,N/A,30.44,10.0,SSE,4.6,-,N/A,,Clear,160,2013-12-24 01:15:00
7:35 PM,-22.0,-9999,N/A,30.42,10.0,SE,6.9,-,N/A,,Clear,130,2013-12-24 01:35:00
7:55 PM,-22.0,-9999,N/A,30.42,10.0,SE,6.9,-,N/A,,Clear,140,2013-12-24 01:55:00
8:15 PM,-23.8,-9999,N/A,30.41,10.0,SSE,5.8,-,N/A,,Clear,160,2013-12-24 02:15:00
8:35 PM,-23.8,-9999,N/A,30.41,3.0,South,4.6,-,N/A,,Clear,170,2013-12-24 02:35:00
8:55 PM,-20.2,-9999,N/A,30.39,10.0,SSE,8.1,-,N/A,,Clear,160,2013-12-24 02:55:00
9:15 PM,-20.2,-27.4,69,30.39,10.0,SSE,8.1,-,N/A,,Clear,160,2013-12-24 03:15:00
9:35 PM,-20.2,-9999,N/A,30.38,10.0,SSE,8.1,-,N/A,,Clear,160,2013-12-24 03:35:00
9:55 PM,-22.0,-9999,N/A,30.37,10.0,SSE,6.9,-,N/A,,Clear,160,2013-12-24 03:55:00
10:15 PM,-22.0,-9999,N/A,30.37,10.0,South,8.1,-,N/A,,Clear,170,2013-12-24 04:15:00
10:35 PM,-22.0,-9999,N/A,30.38,10.0,SSE,6.9,-,N/A,,Clear,160,2013-12-24 04:35:00
10:55 PM,-20.2,-29.2,63,30.37,10.0,SSE,6.9,-,N/A,,Clear,160,2013-12-24 04:55:00
11:15 PM,-22.0,-9999,N/A,30.36,10.0,SSE,6.9,-,N/A,,Clear,150,2013-12-24 05:15:00
11:35 PM,-23.8,-9999,N/A,30.34,10.0,SSE,9.2,-,N/A,,Clear,150,2013-12-24 05:35:00
11:55 PM,-22.0,-25.6,83,30.35,10.0,SSE,8.1,-,N/A,,Clear,160,2013-12-24 05:55:00